Location: Bentorf
(52.1353°N, 8.9162°E)
Time: 01:33:46
(UTC+00:00)

Daily predictions for brighter satellites

Satellite Brightness Start Highest point End
(mag) Time Altitude Azimuth Time Altitude Azimuth Time Altitude Azimuth
CENTAUR R/B 4.2 00:02:48 10° WNW 00:09:24 37° N 00:16:59 10° ENE
Cosmos 2360 Rocket 4.4 00:25:50 10° NNW 00:30:04 21° NNE 00:30:27 20° NE
Cosmos 2082 Rocket 4.1 01:00:46 26° NE 01:00:46 26° NE 01:03:13 10° NE
Cosmos 2322 Rocket 4.4 00:59:22 10° NNW 01:01:08 19° NNW 01:01:08 19° NNW
ATLAS 3B R/B 4.1 01:22:13 26° NNW 01:24:20 31° N 01:30:28 10° ENE
CZ-2D R/B 3.9 01:23:09 10° NNE 01:25:31 27° NNE 01:25:31 27° NNE
NOSS 3-1 (C) 4.3 01:40:38 45° N 01:40:38 45° N 01:45:59 10° NE
SL-16 R/B 4.4 01:47:18 20° NW 01:47:18 20° NW 01:49:07 10° NNW
ARIANE 5 R/B 4.3 01:39:34 10° NE 01:43:01 25° ENE 01:43:01 25° ENE
USA 267 4.0 01:43:29 10° ENE 01:48:35 42° ESE 01:48:35 42° ESE
NOSS 3-2 (A) 4.2 01:43:26 10° NW 01:50:33 66° NE 01:58:47 10° ESE
Resurs 1-4 Rocket 3.7 01:54:47 10° N 01:57:29 29° N 01:57:29 29° N
CENTAUR R/B 3.5 01:54:00 10° NW 02:01:37 60° NE 02:10:14 10° ESE
Cosmos 2360 Rocket 3.7 02:09:28 10° NNW 02:22:23 - SE 02:12:08 28° NNW
ADEOS II 3.1 02:14:04 10° NNE 02:17:30 41° N 02:17:30 41° N
IDEFIX/ARIANE 42P 3.2 02:15:29 10° NNE 02:19:42 54° NE 02:19:42 54° NE
USA 229 DEB 4.1 02:22:53 48° NW 02:23:17 48° NNW 02:30:08 10° NE
USA 229 4.1 02:22:59 48° NW 02:23:22 48° NNW 02:30:14 10° NE
USA 234 3.8 02:19:50 10° SE 02:24:09 44° SSE 02:24:09 44° SSE
ADEOS Rocket 3.7 02:30:07 37° NNW 02:30:07 37° NNW 02:33:21 10° NNW
IRAS Rocket 4.4 02:29:13 68° NNE 02:29:13 68° NNE 02:34:12 10° NNW
NOSS 3-2 (C) 4.1 02:25:24 10° NW 02:32:36 71° NE 02:40:55 10° ESE
Cosmos 1553 Rocket 4.1 02:32:42 61° SE 02:33:37 70° E 02:39:49 10° NNE
SL-08 ROCKET BODY 4.3 02:29:47 10° N 02:35:55 88° NNW 02:35:55 88° NNW
Lacrosse 5 3.3 02:40:09 29° SE 02:40:09 29° SE 02:42:37 10° SE
Cosmos 1833 Rocket 4.1 02:39:48 26° NNW 02:39:48 26° NNW 02:44:04 10° NNE
NOSS 3-1 (A) 4.1 02:39:30 42° NW 02:40:07 43° NNW 02:46:45 10° NE
Cosmos 2082 Rocket 3.2 02:42:36 36° NNW 02:42:36 36° NNW 02:47:17 10° NNE
ARGOS Delta rocket 4.1 02:37:02 10° NNE 02:42:07 76° NNE 02:42:07 76° NNE
MSX 3.8 02:37:50 10° NNE 02:43:37 75° ESE 02:44:10 69° SSE
Cosmos 2333 Rocket 2.8 02:38:04 10° NNW 02:43:45 55° NE 02:49:25 10° SE
SL-27 R/B 4.4 02:53:54 28° NNE 02:53:54 28° NNE 02:55:44 10° NNE
Cosmos 2221 3.1 02:53:27 56° NE 02:53:27 56° NE 02:57:09 10° NNE
SL-19 R/B 4.4 02:53:44 64° WNW 02:53:44 64° WNW 02:59:32 10° NNW
NOSS 2-2 (D) 4.5 02:56:55 39° NE 02:56:55 39° NE 02:59:41 10° NE
Cosmos 1743 Rocket 4.1 02:51:31 10° N 02:55:12 56° NNE 02:55:12 56° NNE
Cosmos 2219 Rocket 2.7 02:53:07 10° NNW 02:58:45 60° NE 03:04:21 10° SE
IRS-1C 4.1 02:54:53 10° NNE 02:59:58 67° NW 02:59:58 67° NW
CZ-2C R/B 3.3 02:55:43 10° NNE 03:00:17 43° E 03:02:02 30° SSE
Cosmos 1269 Rocket 3.9 03:00:32 75° NW 03:00:32 75° NW 03:05:44 10° NNE
CZ-2D R/B 4.1 02:57:44 10° NNE 03:00:54 51° NNE 03:00:54 51° NNE
Aureole 3 Rocket 4.3 03:04:55 36° NW 03:04:55 36° NW 03:09:07 10° N
CZ-2D R/B 3.9 03:04:20 10° N 03:06:50 17° NW 03:06:50 17° NW
Sich 1 4.1 03:06:57 10° N 03:11:14 44° ENE 03:15:27 10° SSE
GEOS 3 Rocket 3.7 03:07:40 10° NE 03:12:57 60° NW 03:13:38 56° WNW
USA 238 DEB 3.7 03:05:49 10° NW 03:12:59 72° SW 03:20:28 10° SSE
USA 238 3.7 03:05:56 10° NW 03:13:06 72° SW 03:20:35 10° SSE
Cosmos 1606 3.8 03:12:56 36° SE 03:13:52 43° E 03:17:36 10° NNE
COSMOS 2428 3.0 03:09:24 10° NNW 03:15:07 67° NE 03:20:49 10° SE
ATLAS 3B R/B 3.7 03:10:05 10° NW 03:16:39 45° NNE 03:23:29 10° E
CZ-4B R/B 3.8 03:11:56 10° N 03:16:35 48° NW 03:16:35 48° NW
ATLAS 5 CENTAUR R/B 4.0 03:19:26 10° SSE 03:21:57 16° ESE 03:24:38 10° ENE
ARIANE 5 R/B 2.6 03:18:17 10° N 03:23:13 54° WNW 03:23:22 53° WNW
S3M 3.8 03:21:13 40° SSW 03:23:38 77° WNW 03:29:52 10° N
Cosmos 1745 Rocket 4.0 03:17:57 10° NNW 03:24:07 58° W 03:26:32 36° SSW
SeaSat 1 3.6 03:19:45 10° ESE 03:24:23 43° NE 03:29:03 10° NNW
Helios 1B 4.4 03:25:10 12° SSE 03:29:16 88° W 03:33:38 10° NNW
Cosmos 1500 Rocket 4.3 03:26:58 10° NNW 03:29:49 37° NW 03:29:49 37° NW
CZ-4C R/B 3.2 03:30:56 37° SE 03:32:06 67° ENE 03:35:34 10° N
FENGYUN 3A 4.4 03:27:40 10° NNE 03:33:01 52° E 03:38:19 10° S
USA 267 3.2 03:26:33 10° ENE 03:33:06 82° NNW 03:35:57 37° WSW
Cosmos 2322 3.6 03:30:03 10° NW 03:35:44 69° WSW 03:41:21 10° SSE
Cosmos 1709 Rocket 3.9 03:29:33 10° NNW 03:35:57 77° W 03:42:19 10° S
NOSS 0 Rocket 4.4 03:30:41 10° NNW 03:36:50 63° NE 03:42:58 10° SE
Resurs 1-4 Rocket 4.2 03:36:50 10° NNW 03:38:34 12° NW 03:38:34 12° NW
NOSS 3-2 (A) 4.2 03:34:24 10° NW 03:41:30 48° WSW 03:49:29 10° SSE
Meteor 1-4 Rocket 3.3 03:42:49 38° NNW 03:42:49 38° NNW 03:45:26 10° N
H-2A R/B 2.4 03:39:01 10° SSE 03:43:10 64° ENE 03:47:17 10° N
SWAS 4.3 03:40:14 15° NW 03:43:44 77° WSW 03:48:04 10° SSE
NOSS 2-2 (C) 4.1 03:44:33 35° NW 03:44:52 36° NNW 03:48:49 10° NE
Spot 4 Rocket 4.1 03:39:55 10° N 03:44:57 54° WNW 03:46:28 40° WSW
Cosmos 1842 Rocket 4.1 03:48:19 38° WNW 03:48:19 38° WNW 03:52:13 10° N
Iridium 4 Rocket 4.4 03:49:26 25° NW 03:49:26 25° NW 03:52:02 10° NNW
Cosmos 1633 Rocket 3.8 03:45:04 10° N 03:49:25 55° ENE 03:53:42 10° SSE
COSMOS 2487 2.3 03:50:12 62° SSW 03:50:43 87° ESE 03:54:10 10° NNE
Cosmos 2344 3.5 03:46:42 27° SW 03:51:12 89° NW 03:59:32 10° NE
Cosmos 1833 4.1 03:48:28 31° SW 03:51:15 78° WNW 03:56:56 10° NNE
CENTAUR R/B 3.2 03:44:48 10° NW 03:52:38 58° SW 04:01:15 10° SSE
Cosmos 2251 Rocket 3.5 03:53:53 23° SSW 03:57:15 84° WNW 04:02:42 10° NNE
Meteor 1-20 Rocket 4.2 03:51:38 10° NNW 03:57:22 89° ENE 04:03:10 10° S
ADEOS II 3.9 03:55:12 10° NNW 03:58:08 15° NW 03:58:26 15° NW
Cosmos 2360 Rocket4.404:04:24SSW04:04:24SSW03:53:49NW
Cosmos 614 Rocket 4.2 03:54:14 14° SSW 03:58:49 73° ESE 04:04:02 10° NNE
IDEFIX/ARIANE 42P 3.7 03:55:44 10° N 03:59:52 24° WNW 04:00:31 24° WNW
ISS -3.3 04:00:41 43° SSW 04:00:41 43° SSW 04:03:50 10° SE
Meteor 2-17 Rocket 4.4 03:55:22 10° NNW 04:01:19 59° W 04:07:14 10° S
ALOS 2.3 03:56:52 10° NNE 04:01:35 83° ESE 04:06:16 10° SSW
PAYLOAD A 4.2 03:56:30 10° N 04:01:42 57° WNW 04:05:03 22° SW
Cosmos 1933 3.6 03:58:57 10° S 04:02:57 69° E 04:07:01 10° NNE
CZ-2C R/B 3.2 04:00:12 10° N 04:03:50 39° WNW 04:04:14 37° W
Cosmos 2237 Rocket 2.6 04:00:49 10° NNW 04:06:31 64° NE 04:12:08 10° SE
Meteor 1-31 Rocket 4.0 04:05:38 10° NNE 04:09:21 42° E 04:13:01 10° S
Iridium 51 4.2 04:06:16 10° N 04:10:08 80° E 04:13:42 10° S
USA 234 4.2 04:05:00 10° S 04:10:11 25° SW 04:11:34 23° WSW
Cosmos 407 Rocket 4.1 04:08:50 10° S 04:13:53 58° ESE 04:18:56 10° NNE
PSLV R/B 3.7 04:09:54 10° N 04:14:12 56° WNW 04:17:21 18° SW
CZ-4C R/B 2.7 04:10:13 12° SSW 04:14:51 57° SE 04:20:49 10° NE
USA 276 2.9 04:16:02 29° SSW 04:17:08 42° SSE 04:20:12 10° E
GENESIS II 4.3 04:17:05 29° WSW 04:18:56 62° NW 04:22:54 10° NE
Lacrosse 5 3.0 04:19:25 23° WSW 04:19:56 23° SW 04:23:53 10° S
Cosmos 192 4.5 04:17:41 10° NNW 04:22:29 51° WSW 04:27:16 10° S
NOSS 3-4 (A) 3.9 04:17:10 10° SSW 04:22:55 59° SE 04:29:11 10° NE
NOSS 3-4 (C) 3.9 04:17:17 10° SSW 04:23:02 59° SE 04:29:17 10° NE
NOSS 3-2 (C) 4.4 04:16:29 10° NW 04:23:29 43° WSW 04:31:20 10° S
Cosmos 1328 Rocket 3.9 04:21:41 10° S 04:25:56 65° E 04:30:14 10° NNE
SL-27 R/B 4.5 04:27:25 14° NW 04:27:41 14° NW 04:29:46 10° NNW
Cosmos 2333 Rocket 2.8 04:22:42 10° NW 04:27:48 33° WSW 04:32:53 10° SSW
Cosmos 2082 Rocket 4.3 04:24:46 10° NW 04:27:51 15° NNW 04:30:57 10° NNE
Cosmos 2227 Rocket 4.4 04:23:59 10° SSE 04:28:39 27° ESE 04:33:20 10° NE
SL-16 R/B 3.5 04:24:00 10° NNW 04:29:26 42° NE 04:34:49 10° ESE
Cosmos 2221 4.0 04:30:18 18° WNW 04:30:51 18° WNW 04:33:53 10° NNW
Cosmos 1484 Rocket 2.7 04:27:34 10° N 04:31:14 57° WNW 04:34:53 10° SSW
Cosmos 1470 Rocket 3.5 04:29:48 10° N 04:34:11 87° ENE 04:38:31 10° S
CZ-4B R/B 4.5 04:30:34 10° NNE 04:34:54 44° E 04:39:13 10° S
Cosmos 1437 Rocket 2.8 04:31:31 10° S 04:35:35 85° E 04:39:36 10° NNE
Landsat 5 4.3 04:34:37 10° SSW 04:37:45 24° W 04:40:59 10° NW
ATLAS 2AS CENTAUR R/B 3.6 04:30:37 10° SSW 04:38:21 59° SE 04:45:56 10° NE
CZ-2C R/B 3.2 04:34:14 10° N 04:38:22 30° WNW 04:41:25 15° WSW
Cosmos 1689 Rocket 4.2 04:36:34 10° SE 04:39:05 29° ENE 04:41:37 10° N
CZ-4B R/B 1.0 04:38:38 10° S 04:41:42 76° WSW 04:44:46 10° NNW
Cosmos 2315 Rocket 4.4 04:36:11 10° SW 04:42:01 42° WNW 04:47:55 10° N
Cosmos 2219 Rocket 2.9 04:37:32 10° NW 04:42:23 30° WSW 04:47:12 10° SSW
COSMO-SKYMED 1 2.5 04:38:24 10° S 04:42:44 68° WSW 04:47:05 10° NNW
Cosmos 2297 Rocket 3.6 04:38:22 10° S 04:43:36 41° ESE 04:48:53 10° NE
Cosmos 1782 2.7 04:41:34 10° SSW 04:45:31 79° W 04:49:30 10° N
CBERS 1 LM4 rocket 4.4 04:41:31 10° N 04:46:13 56° WNW 04:50:51 10° SW
Sich 1 4.1 04:45:07 10° NW 04:48:39 24° W 04:52:09 10° SW
Cosmos 1606 4.1 04:47:57 15° WSW 04:49:48 21° WNW 04:52:48 10° NNW
Cosmos 1500 3.1 04:47:26 10° NNW 04:51:15 77° W 04:55:03 10° S
Cosmos 1140 Rocket 3.5 04:46:04 10° SSW 04:51:17 86° WNW 04:56:30 10° NNE
Cosmos 1980 3.7 04:45:47 10° NW 04:51:24 65° WSW 04:57:00 10° SSE
METEOR-M 4.3 04:46:58 10° N 04:52:11 55° WNW 04:57:22 10° SW
Meteor 1-26 Rocket 4.3 04:48:40 10° SSW 04:54:26 73° WNW 05:00:25 10° N
Cosmos 1933 Rocket 3.6 04:50:07 10° N 04:54:36 87° W 04:59:04 10° S
Cosmos 1666 Rocket 4.3 04:52:05 10° NNW 04:55:55 30° W 04:59:46 10° SSW
ERS-2 2.6 04:52:29 10° SSE 04:56:04 65° ENE 04:59:43 10° N
Cosmos 2074 Rocket 4.1 04:50:43 10° NNW 04:56:42 51° W 05:02:38 10° SSW
COSMOS 2428 3.6 04:54:18 10° NW 04:58:58 27° WSW 05:03:38 10° SSW
ARIANE 5 R/B 4.4 04:59:32 10° NNW 05:01:17 12° NW 05:03:03 10° WNW
SeaSat 1 2.9 04:57:17 10° S 05:01:55 41° WSW 05:06:36 10° NW
MOS 1 Rocket 3.5 04:57:46 10° S 05:02:00 44° W 05:06:31 10° NNW
BREEZE M DEB (TANK) 3.4 04:59:34 13° W 05:02:04 39° SSW 05:09:08 10° SE
Cosmos 1023 Rocket 4.5 04:57:52 10° SSW 05:03:02 69° WNW 05:08:11 10° NNE
YAOGAN 6 3.4 05:00:32 10° NNE 05:03:59 54° E 05:07:24 10° S
Cosmos 2154 Rocket 4.0 04:58:04 10° NNW 05:04:14 65° W 05:10:25 10° S
BREEZE-M DEB (TANK) 2.6 05:00:38 11° W 05:04:33 55° S 05:06:47 10° ESE
ATLAS 5 CENTAUR R/B 1.5 05:01:43 10° SW 05:05:46 82° NW 05:10:29 10° NE
CZ-4B R/B 3.9 05:03:26 10° N 05:07:01 46° WNW 05:10:31 10° SW
ADEOS 3.7 05:02:21 10° N 05:07:30 59° WNW 05:12:37 10° SW
ATLAS 3B R/B 2.8 05:00:54 10° NW 05:07:50 73° SW 05:15:03 10° SSE
FENGYUN 3A 4.5 05:08:22 10° N 05:13:08 32° WNW 05:17:52 10° WSW
Cosmos 1536 4.0 05:11:20 10° N 05:15:14 48° ENE 05:19:06 10° SSE
USA 267 3.6 05:09:30 10° ENE 05:15:54 59° N 05:22:18 10° W
H-2A R/B 3.5 05:16:51 10° SW 05:19:33 16° W 05:22:14 10° NW
Cosmos 909 Rocket 4.3 05:17:01 10° WSW 05:23:17 55° NW 05:29:36 10° NE
